SQ6ELQ-11 Weather Reports


time (UTC)temp
C
wind
direction
speed
KPH
gust
KPH
rain 1hr
cm
rain 24hr
cm
rain mn
cm
humidity
%
barometer
mb
20260507002236 10 0 0.0 0.0 0.00 0.00 0.00 82 1007.4
20260507000416 10 0 0.0 0.0 0.00 0.00 0.00 81 1007.8
20260506234615 10 0 0.0 0.0 0.00 0.00 0.00 82 1008.0
20260506232711 10 0 0.0 0.0 0.00 0.00 0.00 81 1008.2
20260506231016 10 0 0.0 0.0 0.00 0.00 0.00 82 1008.2
20260506225131 10 0 0.0 0.0 0.00 0.00 0.00 81 1008.0
20260506223335 10 0 0.0 0.0 0.00 0.00 0.00 81 1007.8
20260506221501 11 0 0.0 0.0 0.00 0.00 0.00 81 1007.9
20260506215748 11 0 0.0 0.0 0.00 0.00 0.00 81 1007.7
20260506214011 11 0 0.0 0.0 0.00 0.00 0.00 80 1007.9
20260506212156 11 0 0.0 0.0 0.00 0.00 0.00 77 1007.6
20260506210431 11 0 0.0 0.0 0.00 0.00 0.00 75 1007.4
20260506204708 10 0 0.0 0.0 0.00 0.00 0.00 77 1007.3
20260506203011 11 0 0.0 0.0 0.00 0.00 0.00 77 1007.1
20260506201241 11 0 0.0 0.0 0.00 0.00 0.00 78 1006.9
20260506195421 11 0 0.0 0.0 0.00 0.00 0.00 79 1007.0
20260506193646 11 0 0.0 0.0 0.00 0.00 0.00 76 1007.3
20260506191844 11 0 0.0 0.0 0.00 0.00 0.00 75 1007.1
20260506185941 11 0 0.0 0.0 0.00 0.00 0.00 73 1007.9
20260506184136 11 0 0.0 0.0 0.00 0.00 0.00 73 1007.4
20260506182321 11 0 0.0 0.0 0.00 0.00 0.00 74 1006.7
20260506180556 12 0 0.0 0.0 0.00 0.00 0.00 75 1006.8
20260506174744 13 0 0.0 0.0 0.00 0.00 0.00 74 1007.2
20260506173021 13 0 0.0 0.0 0.00 0.00 0.00 74 1007.1
20260506171341 15 0 0.0 0.0 0.00 0.00 0.00 63 1006.5
20260506165426 15 0 0.0 0.0 0.00 0.00 0.00 60 1006.1
20260506163646 15 0 0.0 0.0 0.00 0.00 0.00 59 1006.4
20260506161824 18 0 0.0 0.0 0.00 0.00 0.00 55 1006.7
20260506154126 18 0 0.0 0.0 0.00 0.00 0.00 34 1006.7
20260506152311 22 0 0.0 0.0 0.00 0.00 0.00 27 1006.6
20260506150516 22 0 0.0 0.0 0.00 0.00 0.00 27 1006.4
20260506144627 22 0 0.0 0.0 0.00 0.00 0.00 28 1006.5
20260506143001 22 0 0.0 0.0 0.00 0.00 0.00 27 1006.5
20260506141131 22 0 0.0 0.0 0.00 0.00 0.00 27 1006.6
20260506135350 23 0 0.0 0.0 0.00 0.00 0.00 26 1006.8
20260506133649 20 0 0.0 0.0 0.00 0.00 0.00 33 1007.1
20260506131925 20 0 0.0 0.0 0.00 0.00 0.00 34 1007.3
20260506130125 21 0 0.0 0.0 0.00 0.00 0.00 36 1007.2
20260506124518 21 0 0.0 0.0 0.00 0.00 0.00 36 1007.3
20260506122536 20 0 0.0 0.0 0.00 0.00 0.00 37 1007.5
20260506120606 19 0 0.0 0.0 0.00 0.00 0.00 40 1007.5
20260506114633 18 0 0.0 0.0 0.00 0.00 0.00 40 1007.3
20260506112820 18 0 0.0 0.0 0.00 0.00 0.00 41 1007.3
20260506111043 17 0 0.0 0.0 0.00 0.00 0.00 43 1007.4
20260506105326 17 0 0.0 0.0 0.00 0.00 0.00 44 1007.5
20260506103536 17 0 0.0 0.0 0.00 0.00 0.00 46 1007.4
20260506101744 16 0 0.0 0.0 0.00 0.00 0.00 46 1007.5
20260506100018 16 0 0.0 0.0 0.00 0.00 0.00 45 1007.4
20260506094201 16 0 0.0 0.0 0.00 0.00 0.00 47 1007.4
20260506092350 15 0 0.0 0.0 0.00 0.00 0.00 50 1007.4
20260506090450 15 0 0.0 0.0 0.00 0.00 0.00 50 1007.3
20260506084636 16 0 0.0 0.0 0.00 0.00 0.00 51 1007.2
20260506082906 15 0 0.0 0.0 0.00 0.00 0.00 52 1007.0
20260506081155 15 0 0.0 0.0 0.00 0.00 0.00 53 1006.9
20260506073511 14 0 0.0 0.0 0.00 0.00 0.00 56 1006.8
20260506071646 13 0 0.0 0.0 0.00 0.00 0.00 57 1006.6
20260506062056 13 0 0.0 0.0 0.00 0.00 0.00 59 1006.6
20260506060125 13 0 0.0 0.0 0.00 0.00 0.00 61 1006.3
20260506051013 12 0 0.0 0.0 0.00 0.00 0.00 63 1005.7
20260506043520 12 0 0.0 0.0 0.00 0.00 0.00 64 1005.6
20260506041806 12 0 0.0 0.0 0.00 0.00 0.00 63 1005.4
20260506035911 12 0 0.0 0.0 0.00 0.00 0.00 61 1005.3
20260506034103 12 0 0.0 0.0 0.00 0.00 0.00 59 1005.5
20260506032226 12 0 0.0 0.0 0.00 0.00 0.00 60 1005.4
20260506030506 12 0 0.0 0.0 0.00 0.00 0.00 61 1005.5
20260506024541 11 0 0.0 0.0 0.00 0.00 0.00 64 1005.4
20260506022901 11 0 0.0 0.0 0.00 0.00 0.00 64 1005.4
20260506021201 12 0 0.0 0.0 0.00 0.00 0.00 65 1005.6
20260506015451 12 0 0.0 0.0 0.00 0.00 0.00 64 1006.3
20260506013541 12 0 0.0 0.0 0.00 0.00 0.00 63 1006.3
20260506011831 11 0 0.0 0.0 0.00 0.00 0.00 69 1006.3
20260506010025 11 0 0.0 0.0 0.00 0.00 0.00 66 1006.2
20260506004236 11 0 0.0 0.0 0.00 0.00 0.00 66 1006.2